Year,Month,Day,Hour,Minute,Value (Times are PST for temperature in C)
2007,01,31,00,00,-1.10
2007,01,31,00,05,-1.10
2007,01,31,00,10,-1.10
2007,01,31,00,15,-1.10
2007,01,31,00,20,-1.10
2007,01,31,00,25,-1.10
2007,01,31,00,30,-1.10
2007,01,31,00,35,-0.90
2007,01,31,00,40,-0.90
2007,01,31,00,45,-0.90
2007,01,31,00,50,-0.90
2007,01,31,00,55,-0.90
2007,01,31,01,00,-1.10
2007,01,31,01,05,-1.10
2007,01,31,01,10,-1.10
2007,01,31,01,15,-1.10
2007,01,31,01,20,-1.10
2007,01,31,01,25,-1.10
2007,01,31,01,30,-1.10
2007,01,31,01,35,-1.10
2007,01,31,01,40,-1.10
2007,01,31,01,45,-1.20
2007,01,31,01,50,-1.30
2007,01,31,01,55,-1.40
2007,01,31,02,00,-1.40
2007,01,31,02,05,-1.40
2007,01,31,02,10,-1.40
2007,01,31,02,15,-1.40
2007,01,31,02,20,-1.40
2007,01,31,02,25,-1.40
2007,01,31,02,30,-1.50
2007,01,31,02,35,-1.60
2007,01,31,02,40,-1.60
2007,01,31,02,45,-1.60
2007,01,31,02,50,-1.70
2007,01,31,02,55,-1.70
2007,01,31,03,00,-1.70
2007,01,31,03,05,-1.70
2007,01,31,03,10,-1.70
2007,01,31,03,15,-1.70
2007,01,31,03,20,-1.80
2007,01,31,03,25,-1.80
2007,01,31,03,30,-1.80
2007,01,31,03,35,-1.80
2007,01,31,03,40,-1.70
2007,01,31,03,45,-1.70
2007,01,31,03,50,-1.70
2007,01,31,03,55,-1.80
2007,01,31,04,00,-1.80
2007,01,31,04,05,-1.80
2007,01,31,04,10,-1.80
2007,01,31,04,15,-1.80
2007,01,31,04,20,-1.80
2007,01,31,04,25,-1.80
2007,01,31,04,30,-1.80
2007,01,31,04,35,-1.80
2007,01,31,04,40,-1.80
2007,01,31,04,45,-1.80
2007,01,31,04,50,-1.80
2007,01,31,04,55,-1.80
2007,01,31,05,00,-1.90
2007,01,31,05,05,-2.00
2007,01,31,05,10,-2.00
2007,01,31,05,15,-2.10
2007,01,31,05,20,-2.20
2007,01,31,05,25,-2.30
2007,01,31,05,30,-2.30
2007,01,31,05,35,-2.30
2007,01,31,05,40,-2.30
2007,01,31,05,45,-2.30
2007,01,31,05,50,-2.40
2007,01,31,05,55,-2.30
2007,01,31,06,00,-2.30
2007,01,31,06,05,-2.30
2007,01,31,06,10,-2.30
2007,01,31,06,15,-2.20
2007,01,31,06,20,-2.10
2007,01,31,06,25,-2.10
2007,01,31,06,30,-2.20
2007,01,31,06,35,-2.30
2007,01,31,06,40,-2.30
2007,01,31,06,45,-2.30
2007,01,31,06,50,-2.30
2007,01,31,06,55,-2.30
2007,01,31,07,00,-2.40
2007,01,31,07,05,-2.50
2007,01,31,07,10,-2.60
2007,01,31,07,15,-2.60
2007,01,31,07,20,-2.50
2007,01,31,07,25,-2.50
2007,01,31,07,30,-2.50
2007,01,31,07,35,-2.50
2007,01,31,07,40,-2.50
2007,01,31,07,45,-2.50
2007,01,31,07,50,-2.40
2007,01,31,07,55,-2.40
2007,01,31,08,00,-2.40
2007,01,31,08,05,-2.50
2007,01,31,08,10,-2.50
2007,01,31,08,15,-2.60
2007,01,31,08,20,-2.50
2007,01,31,08,25,-2.50
2007,01,31,08,30,-2.60
2007,01,31,08,35,-2.60
2007,01,31,08,40,-2.60
2007,01,31,08,45,-2.60
2007,01,31,08,50,-2.60
2007,01,31,08,55,-2.60
2007,01,31,09,00,-2.60
2007,01,31,09,05,-2.70
2007,01,31,09,10,-2.60
2007,01,31,09,15,-2.60
2007,01,31,09,20,-2.60
2007,01,31,09,25,-2.60
2007,01,31,09,30,-2.50
2007,01,31,09,35,-2.50
2007,01,31,09,40,-2.50
2007,01,31,09,45,-2.50
2007,01,31,09,50,-2.50
2007,01,31,09,55,-2.50
2007,01,31,10,00,-2.30
2007,01,31,10,05,-2.30
2007,01,31,10,10,-2.40
2007,01,31,10,15,-2.40
2007,01,31,10,20,-2.30
2007,01,31,10,25,-2.20
2007,01,31,10,30,-2.10
2007,01,31,10,35,-2.30
2007,01,31,10,40,-2.30
2007,01,31,10,45,-2.30
2007,01,31,10,50,-2.20
2007,01,31,10,55,-2.00
2007,01,31,11,00,-1.80
2007,01,31,11,05,-1.80
2007,01,31,11,10,-1.80
2007,01,31,11,15,-1.80
2007,01,31,11,20,-1.80
2007,01,31,11,25,-1.80
2007,01,31,11,30,-1.60
2007,01,31,11,35,-1.40
2007,01,31,11,40,-1.40
2007,01,31,11,45,-1.30
2007,01,31,11,50,-1.40
2007,01,31,11,55,-1.30
2007,01,31,12,00,-1.30
2007,01,31,12,05,-1.20
2007,01,31,12,10,-0.90
2007,01,31,12,15,-0.90
2007,01,31,12,20,-0.80
2007,01,31,12,25,-0.90
2007,01,31,12,30,-0.90
2007,01,31,12,35,-0.70
2007,01,31,12,40,-0.60
2007,01,31,12,45,-0.60
2007,01,31,12,50,-0.60
2007,01,31,12,55,-0.60
2007,01,31,13,00,-0.40
2007,01,31,13,05,-0.30
2007,01,31,13,10,-0.30
2007,01,31,13,15,-0.20
2007,01,31,13,20,-0.20
2007,01,31,13,25,-0.10
2007,01,31,13,30,0.10
2007,01,31,13,35,0.20
2007,01,31,13,40,0.10
2007,01,31,13,45,0.20
2007,01,31,13,50,0.30
2007,01,31,13,55,0.30
2007,01,31,14,00,0.20
2007,01,31,14,05,0.20
2007,01,31,14,10,0.40
2007,01,31,14,15,0.40
2007,01,31,14,20,0.50
2007,01,31,14,25,0.50
2007,01,31,14,30,0.50
2007,01,31,14,35,0.50
2007,01,31,14,40,0.60
2007,01,31,14,45,0.60
2007,01,31,14,50,0.50
2007,01,31,14,55,0.60
2007,01,31,15,00,0.80
2007,01,31,15,05,0.90
2007,01,31,15,10,1.00
2007,01,31,15,15,1.10
2007,01,31,15,20,1.00
2007,01,31,15,25,0.90
2007,01,31,15,30,0.80
2007,01,31,15,35,0.70
2007,01,31,15,40,0.70
2007,01,31,15,45,0.60
2007,01,31,15,50,0.60
2007,01,31,15,55,0.60
2007,01,31,16,00,0.60
2007,01,31,16,05,0.50
2007,01,31,16,10,0.50
2007,01,31,16,15,0.50
2007,01,31,16,20,0.50
2007,01,31,16,25,0.50
2007,01,31,16,30,0.50
2007,01,31,16,35,0.60
2007,01,31,16,40,0.60
2007,01,31,16,45,0.60
2007,01,31,16,50,0.60
2007,01,31,16,55,0.60
2007,01,31,17,00,0.60
2007,01,31,17,05,0.60
2007,01,31,17,10,0.50
2007,01,31,17,15,0.40
2007,01,31,17,20,0.40
2007,01,31,17,25,0.40
2007,01,31,17,30,0.40
2007,01,31,17,35,0.30
2007,01,31,17,40,0.20
2007,01,31,17,45,0.20
2007,01,31,17,50,0.20
2007,01,31,17,55,0.30
2007,01,31,18,00,0.30
2007,01,31,18,05,0.10
2007,01,31,18,10,0.10
2007,01,31,18,15,0.20
2007,01,31,18,20,0.20
2007,01,31,18,25,0.10
2007,01,31,18,30,0.10
2007,01,31,18,35,0.10
2007,01,31,18,40,-0.10
2007,01,31,18,45,-0.10
2007,01,31,18,50,-0.10
2007,01,31,18,55,-0.20
2007,01,31,19,00,-0.10
2007,01,31,19,05,-0.10
2007,01,31,19,10,-0.10
2007,01,31,19,15,-0.10
2007,01,31,19,20,-0.10
2007,01,31,19,25,-0.20
2007,01,31,19,30,-0.30
2007,01,31,19,35,-0.30
2007,01,31,19,40,-0.30
2007,01,31,19,45,-0.30
2007,01,31,19,50,-0.30
2007,01,31,19,55,-0.40
2007,01,31,20,00,-0.40
2007,01,31,20,05,-0.40
2007,01,31,20,10,-0.40
2007,01,31,20,15,-0.40
2007,01,31,20,20,-0.40
2007,01,31,20,25,-0.40
2007,01,31,20,30,-0.40
2007,01,31,20,35,-0.40
2007,01,31,20,40,-0.40
2007,01,31,20,45,-0.40
2007,01,31,20,50,-0.40
2007,01,31,20,55,-0.40
2007,01,31,21,00,-0.60
2007,01,31,21,05,-0.40
2007,01,31,21,10,-0.60
2007,01,31,21,15,-0.60
2007,01,31,21,20,-0.60
2007,01,31,21,25,-0.70
2007,01,31,21,30,-0.80
2007,01,31,21,35,-0.70
2007,01,31,21,40,-0.70
2007,01,31,21,45,-0.70
2007,01,31,21,50,-0.70
2007,01,31,21,55,-0.60
2007,01,31,22,00,-0.60
2007,01,31,22,05,-0.60
2007,01,31,22,10,-0.60
2007,01,31,22,15,-0.60
2007,01,31,22,20,-0.60
2007,01,31,22,25,-0.60
2007,01,31,22,30,-0.60
2007,01,31,22,35,-0.60
2007,01,31,22,40,-0.60
2007,01,31,22,45,-0.60
2007,01,31,22,50,-0.60
2007,01,31,22,55,-0.60
2007,01,31,23,00,-0.60
2007,01,31,23,05,-0.60
2007,01,31,23,10,-0.70
2007,01,31,23,15,-0.80
2007,01,31,23,20,-0.80
2007,01,31,23,25,-0.90
2007,01,31,23,30,-0.90
2007,01,31,23,35,-0.90
2007,01,31,23,40,-1.10
2007,01,31,23,45,-1.10
2007,01,31,23,50,-1.10
2007,01,31,23,55,-1.10
